FW7889 Weather Reports


time (UTC)temp
C
wind
direction
speed
KPH
gust
KPH
rain 1hr
cm
rain 24hr
cm
rain mn
cm
humidity
%
barometer
mb
20260831172057 20 275 1.6 1.6 0.00 0.00 0.00 90 1075.1
20260831171055 20 275 8.0 8.0 0.00 0.00 0.00 89 1075.1
20260831170054 20 266 3.2 3.2 0.00 0.00 0.00 90 1075.1
20260831165051 20 252 4.8 8.0 0.00 0.00 0.00 90 1074.9
20260831164048 19 267 1.6 3.2 0.00 0.00 0.00 90 1075.0
20260831163044 20 256 6.4 8.0 0.00 0.00 0.00 90 1075.1
20260831162041 20 275 1.6 1.6 0.00 0.00 0.00 88 1075.3
20260831161040 20 268 1.6 1.6 0.00 0.00 0.00 87 1075.1
20260831160035 20 249 1.6 1.6 0.00 0.00 0.00 88 1075.3
20260831155030 20 205 1.6 1.6 0.00 0.00 0.00 89 1075.2
20260831154026 20 241 1.6 1.6 0.00 0.00 0.00 90 1075.3
20260831153023 20 277 0.0 1.6 0.00 0.00 0.00 88 1075.2
20260831152019 20 200 4.8 4.8 0.00 0.00 0.00 89 1075.2
20260831151019 20 201 3.2 3.2 0.00 0.00 0.00 91 1075.4
20260831150016 19 264 1.6 1.6 0.00 0.00 0.00 92 1075.4
20260831145012 19 257 6.4 8.0 0.00 0.00 0.00 91 1075.2
20260831144009 19 199 4.8 4.8 0.00 0.00 0.00 92 1075.2
20260831143005 18 243 1.6 1.6 0.00 0.00 0.00 92 1075.3
20260831142002 19 232 1.6 1.6 0.00 0.00 0.00 93 1075.1
20260831140956 18 254 1.6 1.6 0.00 0.00 0.00 93 1075.6
20260831135955 18 250 1.6 1.6 0.00 0.00 0.00 97 1075.4
20260831134954 18 196 1.6 3.2 0.00 0.00 0.00 96 1075.4
20260831133951 17 223 1.6 1.6 0.00 0.00 0.00 99 1075.4
20260831132946 17 253 1.6 1.6 0.00 0.00 0.00 99 1075.4
20260831131941 17 210 1.6 3.2 0.00 0.00 0.00 99 1075.4
20260831130938 16 154 3.2 3.2 0.00 0.00 0.00 99 1075.8
20260831125933 16 174 3.2 3.2 0.00 0.00 0.00 99 1075.6
20260831124929 16 259 0.0 0.0 0.00 0.00 0.00 99 1076.1
20260831123926 16 262 0.0 0.0 0.00 0.00 0.00 99 1076.0
20260831122925 16 226 1.6 1.6 0.00 0.00 0.00 99 1075.9
20260831121921 15 266 0.0 0.0 0.00 0.00 0.00 99 1076.0
20260831120919 15 250 0.0 1.6 0.00 0.00 0.00 99 1075.9
20260831115919 15 244 1.6 1.6 0.00 0.00 0.00 99 1076.1
20260831114915 15 243 1.6 1.6 0.00 0.00 0.00 99 1076.0
20260831113910 15 205 1.6 1.6 0.00 0.00 0.00 99 1075.8
20260831112905 15 262 0.0 0.0 0.00 0.00 0.00 99 1075.7
20260831111900 15 261 1.6 1.6 0.00 0.00 0.00 99 1075.8
20260831110858 15 271 1.6 1.6 0.00 0.00 0.00 99 1075.7
20260831105857 15 271 1.6 1.6 0.00 0.00 0.00 99 1075.2
20260831104853 15 91 3.2 3.2 0.00 0.00 0.00 99 1075.2
20260831103849 15 255 0.0 0.0 0.00 0.00 0.00 99 1075.2
20260831102846 15 266 0.0 0.0 0.00 0.00 0.00 99 1075.2
20260831101842 15 264 0.0 0.0 0.00 0.00 0.00 99 1075.1
20260831100839 15 266 0.0 0.0 0.00 0.00 0.00 99 1075.0
20260831095834 15 276 0.0 0.0 0.00 0.00 0.00 99 1074.9
20260831094829 15 270 0.0 0.0 0.00 0.00 0.00 99 1074.9
20260831093826 15 270 0.0 0.0 0.00 0.00 0.00 99 1074.7
20260831092823 15 245 0.0 0.0 0.00 0.00 0.00 99 1074.9
20260831091819 15 268 0.0 0.0 0.00 0.00 0.00 99 1074.7
20260831090816 15 321 0.0 1.6 0.00 0.00 0.00 99 1074.5
20260831085814 15 277 0.0 0.0 0.00 0.00 0.00 99 1074.4
20260831084809 15 283 0.0 0.0 0.00 0.00 0.00 99 1074.6
20260831083807 15 287 0.0 0.0 0.00 0.00 0.00 99 1074.4
20260831082807 15 288 0.0 0.0 0.00 0.00 0.00 99 1074.6
20260831081803 16 303 0.0 0.0 0.00 0.00 0.00 99 1074.7
20260831080800 16 87 1.6 3.2 0.00 0.00 0.00 99 1074.7
20260831075757 16 272 0.0 0.0 0.00 0.00 0.00 99 1074.7
20260831074758 16 277 0.0 0.0 0.00 0.00 0.00 99 1074.7
20260831073753 16 271 0.0 0.0 0.00 0.00 0.00 99 1074.6
20260831072752 16 277 0.0 0.0 0.00 0.00 0.00 99 1075.0
20260831071749 16 278 0.0 0.0 0.00 0.00 0.00 99 1074.8
20260831070744 16 277 0.0 0.0 0.00 0.00 0.00 99 1074.8
20260831065742 16 277 0.0 0.0 0.00 0.00 0.00 99 1074.7
20260831064742 16 277 0.0 0.0 0.00 0.00 0.00 99 1074.8
20260831063739 16 278 0.0 0.0 0.00 0.00 0.00 99 1074.6
20260831062739 16 277 0.0 0.0 0.00 0.00 0.00 99 1074.6
20260831061738 16 277 0.0 0.0 0.00 0.00 0.00 99 1074.9
20260831060736 16 277 0.0 0.0 0.00 0.00 0.00 99 1075.0
20260831055735 16 269 0.0 0.0 0.00 0.00 0.00 99 1075.1
20260831054730 16 278 0.0 0.0 0.00 0.00 0.00 99 1075.2
20260831053725 16 277 0.0 0.0 0.00 0.00 0.00 99 1075.2
20260831052723 16 277 0.0 0.0 0.00 0.00 0.00 99 1074.8
20260831051721 16 277 0.0 0.0 0.00 0.00 0.00 99 1074.8
20260831050720 16 280 0.0 0.0 0.00 0.00 0.00 99 1074.9
20260831045720 16 278 0.0 0.0 0.00 0.00 0.00 99 1075.0
20260831044715 16 277 0.0 0.0 0.00 0.00 0.00 99 1074.9
20260831043712 16 279 0.0 0.0 0.00 0.00 0.00 99 1075.0
20260831042712 16 272 0.0 0.0 0.00 0.00 0.00 99 1075.3
20260831041708 16 272 0.0 0.0 0.00 0.00 0.00 99 1075.2
20260831040703 16 272 0.0 0.0 0.00 0.00 0.00 99 1075.0
20260831035700 16 270 0.0 0.0 0.00 0.10 0.10 99 1075.0
20260831034700 16 270 0.0 0.0 0.00 0.10 0.10 99 1075.0
20260831033657 16 268 0.0 1.6 0.00 0.10 0.10 99 1074.9
20260831032657 16 261 1.6 1.6 0.00 0.10 0.10 99 1075.0
20260831031653 16 271 0.0 0.0 0.00 0.10 0.10 99 1075.1
20260831030651 16 263 1.6 1.6 0.00 0.10 0.10 99 1074.9
20260831025649 16 268 0.0 0.0 0.00 0.10 0.10 99 1074.8
20260831024647 16 272 0.0 0.0 0.00 0.10 0.10 99 1074.9
20260831023644 16 271 0.0 0.0 0.00 0.10 0.10 99 1074.9
20260831022638 16 263 0.0 1.6 0.00 0.10 0.10 99 1075.0
20260831021638 16 268 0.0 0.0 0.00 0.10 0.10 99 1074.7
20260831020635 16 264 0.0 1.6 0.00 0.10 0.10 99 1074.7
20260831015631 16 265 1.6 1.6 0.00 0.10 0.10 99 1074.7
20260831014631 16 263 0.0 0.0 0.00 0.10 0.10 99 1074.7
20260831013629 16 272 0.0 0.0 0.00 0.10 0.10 99 1074.7
20260831012629 16 263 1.6 1.6 0.00 0.10 0.10 99 1074.7
20260831011630 16 263 0.0 0.0 0.00 0.10 0.10 99 1074.3
20260831010627 16 259 0.0 0.0 0.00 0.10 0.10 99 1074.3
20260831005622 16 271 0.0 0.0 0.00 0.10 0.10 99 1074.2
20260831004619 16 271 0.0 0.0 0.00 0.10 0.10 99 1074.3
20260831003617 16 268 0.0 0.0 0.00 0.10 0.10 99 1074.2
20260831002616 16 258 0.0 0.0 0.00 0.10 0.10 99 1073.9
20260831001613 16 269 0.0 1.6 0.00 0.10 0.10 99 1074.0
20260831000611 16 271 0.0 0.0 0.00 0.10 0.10 99 1073.8
20260830235610 16 259 1.6 1.6 0.18 0.10 0.10 99 1073.7
20260830234605 16 267 0.0 0.0 0.00 0.08 0.08 99 1073.5
20260830233602 16 271 0.0 1.6 0.00 0.08 0.08 99 1073.7
20260830232559 16 274 1.6 1.6 0.00 0.08 0.08 99 1073.3
20260830231557 16 259 1.6 1.6 0.00 0.08 0.08 99 1073.1
20260830230551 16 277 0.0 0.0 0.00 0.08 0.08 99 1073.5
20260830225547 16 268 0.0 1.6 0.00 0.08 0.08 99 1073.7
20260830224545 16 274 0.0 0.0 0.00 0.08 0.08 99 1073.4
20260830223545 16 271 0.0 0.0 0.00 0.08 0.08 99 1073.6
20260830222545 16 263 1.6 1.6 0.00 0.08 0.08 99 1073.5
20260830221543 16 271 1.6 1.6 0.00 0.08 0.08 99 1073.3
20260830220538 16 271 0.0 0.0 0.00 0.08 0.08 99 1073.3
20260830215537 16 257 1.6 3.2 0.00 0.08 0.08 99 1073.4
20260830214533 16 279 1.6 3.2 0.00 0.08 0.08 99 1073.6
20260830213533 16 258 1.6 1.6 0.00 0.08 0.08 99 1073.5
20260830212530 16 263 1.6 3.2 0.13 0.08 0.08 99 1073.5
20260830211526 16 269 3.2 3.2 0.00 0.05 0.05 99 1073.5
20260830210526 16 278 0.0 0.0 0.18 0.05 0.05 99 1073.6
20260830205523 16 277 0.0 0.0 0.00 0.03 0.03 99 1073.8
20260830204518 16 252 6.4 8.0 0.00 0.03 0.03 99 1073.6
20260830203514 16 278 0.0 0.0 0.00 0.03 0.03 99 1073.4
20260830202509 16 264 1.6 1.6 0.00 0.03 0.03 99 1073.4
20260830201504 16 267 3.2 3.2 0.00 0.03 0.03 99 1073.6
20260830200459 16 278 1.6 3.2 0.00 0.03 0.03 99 1073.7
20260830195455 16 266 4.8 4.8 0.00 0.03 0.03 99 1073.7
20260830194452 17 255 3.2 3.2 0.18 0.03 0.03 99 1073.8
20260830193452 17 263 3.2 3.2 0.00 0.00 0.00 99 1073.8
20260830192448 17 263 3.2 3.2 0.00 0.00 0.00 99 1073.7
20260830191443 17 253 1.6 1.6 0.00 0.00 0.00 97 1074.1
20260830190440 18 265 1.6 1.6 0.00 0.00 0.00 93 1073.8
20260830185440 18 252 8.0 9.7 0.00 0.00 0.00 89 1073.7
20260830184440 19 267 1.6 1.6 0.00 0.00 0.00 84 1073.9
20260830183435 20 278 3.2 3.2 0.00 0.00 0.00 83 1073.7
20260830182432 20 270 1.6 1.6 0.00 0.00 0.00 81 1073.7
20260830181430 20 277 6.4 8.0 0.00 0.00 0.00 81 1073.6
20260830180430 21 309 1.6 3.2 0.00 0.00 0.00 79 1073.8
20260830175428 21 262 6.4 8.0 0.00 0.00 0.00 81 1073.7
20260830174426 20 270 1.6 1.6 0.00 0.00 0.00 79 1073.5
20260830173422 21 271 1.6 3.2 0.00 0.00 0.00 78 1073.7